RYR84KM EGGW-LEMI

Flight info

Callsign RYR84KM
Flight time 2h 15m
Altitude 37000
Route RODNI N27 ICTAM Q63 CPT UN859 SOPIL DCT BALAN DCT LMG DCT PIMQO DCT AGN DCT ANETO DCT POSSY DCT XIMPE DCT RIMES DCT SAURA DCT TATOS DCT PLANA DCT VLC L34 ALT
Aircraft B38M/M-SADE3FGILRWY/SB1

Departure

Time 2026-04-18 05:57
Airport London Luton Airport (EGGW)

Arrival

Time 2026-04-18 08:12
Airport Region of Murcia International Airport (LEMI)
Time Latitude Longitude Altitude Speed Heading
2026-04-18 05:37 51.88023 -0.37828 538 ft 0 kts 128°
2026-04-18 05:44 51.88026 -0.37834 538 ft 4 kts 130°
2026-04-18 05:45 51.88046 -0.37857 538 ft 4 kts 167°
2026-04-18 05:45 51.88070 -0.37860 538 ft 1 kts 184°
2026-04-18 05:45 51.88071 -0.37860 538 ft 1 kts 184°
2026-04-18 05:50 51.88069 -0.37860 538 ft 1 kts 183°
2026-04-18 05:50 51.88064 -0.37863 539 ft 0 kts 207°
2026-04-18 05:51 51.88061 -0.37868 539 ft 1 kts 216°
2026-04-18 05:51 51.88041 -0.37893 539 ft 8 kts 220°
2026-04-18 05:51 51.87967 -0.37982 539 ft 17 kts 207°
2026-04-18 05:51 51.87856 -0.37989 539 ft 17 kts 152°
2026-04-18 05:52 51.87783 -0.37846 539 ft 17 kts 117°
2026-04-18 05:52 51.87729 -0.37661 538 ft 19 kts 115°
2026-04-18 05:52 51.87657 -0.37481 538 ft 20 kts 143°
2026-04-18 05:52 51.87578 -0.37315 538 ft 20 kts 92°
2026-04-18 05:53 51.87610 -0.37092 537 ft 21 kts 74°
2026-04-18 05:53 51.87651 -0.36852 536 ft 23 kts 75°
2026-04-18 05:53 51.87696 -0.36592 536 ft 25 kts 73°
2026-04-18 05:53 51.87743 -0.36338 535 ft 22 kts 73°
2026-04-18 05:54 51.87778 -0.36138 534 ft 12 kts 77°
2026-04-18 05:54 51.87775 -0.35999 534 ft 13 kts 118°
2026-04-18 05:54 51.87701 -0.35926 533 ft 13 kts 165°
2026-04-18 05:54 51.87641 -0.35831 532 ft 14 kts 85°
2026-04-18 05:55 51.87669 -0.35667 530 ft 16 kts 75°
2026-04-18 05:55 51.87697 -0.35483 532 ft 17 kts 86°
2026-04-18 05:55 51.87703 -0.35357 532 ft 5 kts 24°
2026-04-18 05:55 51.87717 -0.35363 532 ft 0 kts 308°
2026-04-18 05:56 51.87715 -0.35383 532 ft 6 kts 261°
2026-04-18 05:56 51.87658 -0.35721 531 ft 71 kts 254°
2026-04-18 05:56 51.87452 -0.36915 538 ft 146 kts 254°
2026-04-18 05:56 51.87149 -0.38694 969 ft 176 kts 254°
2026-04-18 05:57 51.85770 -0.42137 2811 ft 214 kts 210°
2026-04-18 05:57 51.84330 -0.43152 3535 ft 235 kts 213°
2026-04-18 05:57 51.82896 -0.44592 4426 ft 249 kts 216°
2026-04-18 05:58 51.81575 -0.46382 4550 ft 248 kts 235°
2026-04-18 05:58 51.80864 -0.48885 5239 ft 245 kts 258°
2026-04-18 05:58 51.80659 -0.51563 6495 ft 244 kts 260°
2026-04-18 05:58 51.80224 -0.54220 7607 ft 247 kts 251°
2026-04-18 05:59 51.79709 -0.56931 8660 ft 252 kts 252°
2026-04-18 05:59 51.79227 -0.59645 9665 ft 257 kts 253°
2026-04-18 05:59 51.78745 -0.62454 10567 ft 264 kts 253°
2026-04-18 05:59 51.78244 -0.65418 11076 ft 283 kts 253°
2026-04-18 06:00 51.77716 -0.68569 11601 ft 298 kts 253°
2026-04-18 06:00 51.77170 -0.71840 12324 ft 303 kts 253°
2026-04-18 06:00 51.76623 -0.75129 13186 ft 305 kts 253°
2026-04-18 06:00 51.75939 -0.78386 13935 ft 307 kts 240°
2026-04-18 06:01 51.74601 -0.81072 14653 ft 310 kts 227°
2026-04-18 06:01 51.73096 -0.83585 15274 ft 313 kts 227°
2026-04-18 06:01 51.71568 -0.86107 15938 ft 315 kts 227°
2026-04-18 06:01 51.70019 -0.88628 16557 ft 317 kts 226°
2026-04-18 06:02 51.68455 -0.91156 17180 ft 320 kts 226°
2026-04-18 06:02 51.66877 -0.93698 17762 ft 322 kts 226°
2026-04-18 06:02 51.65285 -0.96253 18341 ft 324 kts 226°
2026-04-18 06:02 51.63686 -0.98817 18877 ft 326 kts 226°
2026-04-18 06:03 51.62077 -1.01393 19353 ft 327 kts 226°
2026-04-18 06:03 51.60457 -1.03984 19810 ft 329 kts 226°
2026-04-18 06:03 51.58829 -1.06582 20265 ft 331 kts 226°
2026-04-18 06:03 51.57193 -1.09192 20705 ft 333 kts 226°
2026-04-18 06:04 51.55546 -1.11817 21107 ft 335 kts 227°
2026-04-18 06:04 51.53885 -1.14462 21529 ft 337 kts 227°
2026-04-18 06:04 51.52191 -1.17076 21932 ft 340 kts 221°
2026-04-18 06:04 51.50113 -1.18938 22361 ft 349 kts 203°
2026-04-18 06:05 51.47682 -1.19561 22795 ft 362 kts 185°
2026-04-18 06:05 51.45160 -1.18871 23212 ft 377 kts 168°
2026-04-18 06:05 51.42728 -1.17157 23628 ft 383 kts 163°
2026-04-18 06:05 51.40287 -1.15401 23920 ft 386 kts 163°
2026-04-18 06:06 51.37837 -1.13619 24227 ft 388 kts 163°
2026-04-18 06:06 51.35379 -1.11822 24518 ft 389 kts 163°
2026-04-18 06:06 51.32914 -1.10016 24790 ft 391 kts 163°
2026-04-18 06:06 51.30430 -1.08198 25041 ft 393 kts 163°
2026-04-18 06:07 51.27940 -1.06377 25309 ft 395 kts 163°
2026-04-18 06:07 51.25440 -1.04550 25582 ft 396 kts 163°
2026-04-18 06:07 51.22931 -1.02719 25844 ft 397 kts 164°
2026-04-18 06:07 51.20412 -1.00883 26109 ft 399 kts 164°
2026-04-18 06:08 51.17884 -0.99042 26353 ft 400 kts 164°
2026-04-18 06:08 51.15349 -0.97199 26598 ft 401 kts 164°
2026-04-18 06:08 51.12801 -0.95347 26835 ft 403 kts 164°
2026-04-18 06:08 51.10250 -0.93498 27095 ft 403 kts 164°
2026-04-18 06:09 51.07703 -0.91652 27365 ft 403 kts 165°
2026-04-18 06:09 51.05145 -0.89801 27551 ft 405 kts 165°
2026-04-18 06:09 51.02579 -0.87946 27775 ft 405 kts 165°
2026-04-18 06:09 50.99999 -0.86084 28195 ft 407 kts 165°
2026-04-18 06:10 50.97412 -0.84219 28640 ft 410 kts 165°
2026-04-18 06:10 50.94811 -0.82345 29043 ft 413 kts 165°
2026-04-18 06:10 50.92189 -0.80460 29480 ft 415 kts 165°
2026-04-18 06:10 50.89556 -0.78568 29893 ft 417 kts 166°
2026-04-18 06:11 50.86907 -0.76666 30274 ft 419 kts 166°
2026-04-18 06:11 50.84307 -0.74439 30656 ft 432 kts 157°
2026-04-18 06:11 50.81786 -0.71847 31020 ft 433 kts 158°
2026-04-18 06:11 50.79242 -0.69267 31295 ft 436 kts 157°
2026-04-18 06:12 50.76685 -0.66665 31626 ft 438 kts 157°
2026-04-18 06:12 50.74113 -0.64052 31924 ft 441 kts 157°
2026-04-18 06:12 50.71522 -0.61424 32227 ft 443 kts 156°
2026-04-18 06:12 50.68921 -0.58787 32521 ft 446 kts 156°
2026-04-18 06:13 50.66304 -0.56139 32806 ft 448 kts 156°
2026-04-18 06:13 50.63671 -0.53478 33044 ft 451 kts 156°
2026-04-18 06:13 50.61027 -0.50809 33353 ft 452 kts 156°
2026-04-18 06:13 50.58377 -0.48138 33699 ft 453 kts 156°
2026-04-18 06:14 50.55727 -0.45469 34083 ft 452 kts 156°
2026-04-18 06:14 50.53076 -0.42804 34414 ft 452 kts 156°
2026-04-18 06:14 50.50430 -0.40148 34698 ft 452 kts 156°
2026-04-18 06:14 50.47816 -0.37526 34972 ft 452 kts 156°
2026-04-18 06:15 50.45165 -0.34873 35245 ft 452 kts 155°
2026-04-18 06:15 50.42517 -0.32225 35521 ft 452 kts 155°
2026-04-18 06:15 50.39826 -0.29538 35731 ft 452 kts 155°
2026-04-18 06:15 50.37209 -0.26928 35965 ft 453 kts 155°
2026-04-18 06:16 50.34552 -0.24282 36226 ft 452 kts 155°
2026-04-18 06:16 50.31895 -0.21639 36470 ft 453 kts 155°
2026-04-18 06:16 50.29239 -0.19001 36715 ft 452 kts 155°
2026-04-18 06:16 50.26580 -0.16364 36943 ft 453 kts 155°
2026-04-18 06:17 50.23924 -0.13734 37166 ft 453 kts 154°
2026-04-18 06:17 50.18555 -0.08427 37195 ft 460 kts 154°
2026-04-18 06:18 50.13208 -0.03153 37243 ft 453 kts 154°
2026-04-18 06:18 50.07632 0.00767 37242 ft 430 kts 173°
2026-04-18 06:19 50.02785 0.02787 37214 ft 433 kts 172°
2026-04-18 06:19 49.96944 0.05143 37195 ft 434 kts 173°
2026-04-18 06:20 49.91099 0.07445 37227 ft 434 kts 173°
2026-04-18 06:20 49.85246 0.09739 37232 ft 434 kts 173°
2026-04-18 06:21 49.79391 0.12027 37236 ft 434 kts 173°
2026-04-18 06:21 49.73538 0.14309 37216 ft 434 kts 173°
2026-04-18 06:22 49.67685 0.16611 37241 ft 435 kts 172°
2026-04-18 06:22 49.61831 0.18976 37237 ft 434 kts 172°
2026-04-18 06:23 49.55978 0.21329 37234 ft 434 kts 172°
2026-04-18 06:23 49.50129 0.23673 37217 ft 435 kts 172°
2026-04-18 06:24 49.44312 0.25999 37236 ft 435 kts 172°
2026-04-18 06:24 49.38455 0.28336 37242 ft 435 kts 172°
2026-04-18 06:25 49.32599 0.30666 37237 ft 435 kts 172°
2026-04-18 06:25 49.26754 0.33129 37228 ft 436 kts 172°
2026-04-18 06:26 49.20904 0.35594 37212 ft 436 kts 172°
2026-04-18 06:26 49.15050 0.38051 37213 ft 436 kts 172°
2026-04-18 06:27 49.09198 0.40502 37213 ft 436 kts 172°
2026-04-18 06:27 49.03343 0.42947 37214 ft 437 kts 172°
2026-04-18 06:28 48.97467 0.45396 37210 ft 438 kts 172°
2026-04-18 06:28 48.91586 0.47841 37215 ft 438 kts 172°
2026-04-18 06:29 48.85706 0.50279 37207 ft 438 kts 172°
2026-04-18 06:29 48.79820 0.52709 37202 ft 438 kts 172°
2026-04-18 06:30 48.73926 0.55023 37203 ft 438 kts 173°
2026-04-18 06:30 48.68037 0.57338 37203 ft 437 kts 173°
2026-04-18 06:31 48.62177 0.59637 37187 ft 438 kts 173°
2026-04-18 06:31 48.56256 0.61954 37194 ft 439 kts 173°
2026-04-18 06:32 48.50346 0.64313 37197 ft 440 kts 172°
2026-04-18 06:32 48.44436 0.66717 37192 ft 440 kts 172°
2026-04-18 06:33 48.38527 0.69110 37191 ft 440 kts 172°
2026-04-18 06:33 48.32611 0.71500 37183 ft 440 kts 172°
2026-04-18 06:34 48.26697 0.73883 37188 ft 440 kts 172°
2026-04-18 06:34 48.20777 0.76219 37162 ft 440 kts 172°
2026-04-18 06:35 48.14855 0.78551 37176 ft 440 kts 172°
2026-04-18 06:35 48.08939 0.80876 37191 ft 440 kts 172°
2026-04-18 06:36 48.03018 0.83197 37190 ft 440 kts 172°
2026-04-18 06:36 47.97137 0.85497 37168 ft 440 kts 172°
2026-04-18 06:37 47.91208 0.87810 37180 ft 440 kts 172°
2026-04-18 06:37 47.85278 0.90118 37179 ft 440 kts 172°
2026-04-18 06:38 47.79349 0.92418 37143 ft 440 kts 172°
2026-04-18 06:38 47.73417 0.94714 37177 ft 441 kts 172°
2026-04-18 06:39 47.67482 0.97006 37182 ft 441 kts 172°
2026-04-18 06:39 47.61546 0.99293 37177 ft 441 kts 172°
2026-04-18 06:40 47.55610 1.01575 37170 ft 441 kts 172°
2026-04-18 06:40 47.49670 1.03852 37178 ft 441 kts 172°
2026-04-18 06:41 47.43767 1.06062 37173 ft 438 kts 176°
2026-04-18 06:41 47.40786 1.06289 37192 ft 425 kts 188°
2026-04-18 06:41 47.37811 1.06245 37137 ft 429 kts 186°
2026-04-18 06:42 47.31847 1.06173 37189 ft 429 kts 186°
2026-04-18 06:42 47.25882 1.06043 37183 ft 428 kts 186°
2026-04-18 06:43 47.19922 1.05904 37186 ft 428 kts 186°
2026-04-18 06:43 47.13961 1.05765 37176 ft 429 kts 186°
2026-04-18 06:44 47.07993 1.05626 37181 ft 429 kts 186°
2026-04-18 06:44 47.02025 1.05458 37176 ft 428 kts 187°
2026-04-18 06:45 46.96072 1.05195 37167 ft 428 kts 187°
2026-04-18 06:45 46.90109 1.04943 37181 ft 429 kts 187°
2026-04-18 06:46 46.84150 1.04693 37181 ft 428 kts 187°
2026-04-18 06:46 46.78190 1.04442 37181 ft 428 kts 187°
2026-04-18 06:47 46.72270 1.04195 37181 ft 428 kts 187°
2026-04-18 06:47 46.66310 1.03946 37182 ft 428 kts 187°
2026-04-18 06:48 46.60349 1.03697 37181 ft 428 kts 187°
2026-04-18 06:48 46.54386 1.03450 37165 ft 428 kts 187°
2026-04-18 06:49 46.48419 1.03337 37177 ft 430 kts 186°
2026-04-18 06:49 46.42440 1.03272 37181 ft 429 kts 186°
2026-04-18 06:50 46.36462 1.03202 37182 ft 429 kts 186°
2026-04-18 06:50 46.30485 1.03131 37185 ft 430 kts 186°
2026-04-18 06:51 46.24502 1.03060 37182 ft 430 kts 186°
2026-04-18 06:51 46.18523 1.02989 37182 ft 430 kts 186°
2026-04-18 06:52 46.12540 1.02919 37192 ft 430 kts 186°
2026-04-18 06:52 46.06545 1.02848 37194 ft 430 kts 186°
2026-04-18 06:53 46.00557 1.02778 37206 ft 430 kts 186°
2026-04-18 06:53 45.94567 1.02709 37190 ft 430 kts 186°
2026-04-18 06:54 45.88572 1.02638 37206 ft 431 kts 186°
2026-04-18 06:54 45.82580 1.02574 37208 ft 431 kts 184°
2026-04-18 06:55 45.76582 1.03875 37165 ft 438 kts 175°
2026-04-18 06:55 45.70579 1.05398 37213 ft 439 kts 175°
2026-04-18 06:56 45.64571 1.06940 37187 ft 438 kts 175°
2026-04-18 06:56 45.58564 1.08480 37180 ft 438 kts 175°
2026-04-18 06:57 45.52597 1.10006 37187 ft 439 kts 175°
2026-04-18 06:57 45.43572 1.12308 37181 ft 439 kts 175°
2026-04-18 06:58 45.37554 1.13839 37175 ft 439 kts 175°
2026-04-18 06:58 45.31534 1.15367 37187 ft 440 kts 175°
2026-04-18 06:59 45.25498 1.16896 37191 ft 442 kts 174°
2026-04-18 06:59 45.19442 1.18428 37185 ft 442 kts 174°
2026-04-18 07:00 45.16407 1.18988 37173 ft 436 kts 185°
2026-04-18 07:00 45.13435 1.18510 37210 ft 429 kts 194°
2026-04-18 07:00 45.07515 1.17116 37201 ft 432 kts 194°
2026-04-18 07:01 45.01598 1.15633 37194 ft 432 kts 194°
2026-04-18 07:01 44.95690 1.14123 37186 ft 431 kts 194°
2026-04-18 07:02 44.89797 1.12618 37185 ft 430 kts 194°
2026-04-18 07:02 44.83905 1.11116 37180 ft 430 kts 194°
2026-04-18 07:03 44.78015 1.09616 37190 ft 430 kts 194°
2026-04-18 07:03 44.72129 1.08122 37181 ft 430 kts 194°
2026-04-18 07:04 44.66237 1.06629 37188 ft 430 kts 194°
2026-04-18 07:04 44.60350 1.05140 37184 ft 430 kts 194°
2026-04-18 07:05 44.54448 1.03650 37189 ft 432 kts 194°
2026-04-18 07:05 44.48580 1.02172 37198 ft 431 kts 194°
2026-04-18 07:06 44.42671 1.00687 37199 ft 431 kts 194°
2026-04-18 07:06 44.36756 0.99203 37202 ft 433 kts 194°
2026-04-18 07:07 44.30822 0.97718 37202 ft 433 kts 194°
2026-04-18 07:07 44.24896 0.96238 37206 ft 433 kts 194°
2026-04-18 07:08 44.18965 0.94759 37202 ft 433 kts 193°
2026-04-18 07:08 44.13029 0.93282 37209 ft 434 kts 193°
2026-04-18 07:09 44.07091 0.91808 37206 ft 433 kts 193°
2026-04-18 07:09 44.02159 0.90586 37203 ft 433 kts 193°
2026-04-18 07:10 43.96216 0.89115 37220 ft 434 kts 193°
2026-04-18 07:10 43.90273 0.87648 37220 ft 434 kts 193°
2026-04-18 07:11 43.84355 0.86062 37217 ft 433 kts 194°
2026-04-18 07:11 43.78437 0.84477 37217 ft 433 kts 194°
2026-04-18 07:12 43.72520 0.82897 37225 ft 433 kts 194°
2026-04-18 07:12 43.66600 0.81320 37228 ft 433 kts 194°
2026-04-18 07:13 43.60686 0.79748 37221 ft 433 kts 194°
2026-04-18 07:13 43.54766 0.78177 37224 ft 433 kts 194°
2026-04-18 07:14 43.48882 0.76620 37226 ft 433 kts 194°
2026-04-18 07:14 43.42972 0.75058 37228 ft 432 kts 194°
2026-04-18 07:15 43.37062 0.73499 37235 ft 433 kts 194°
2026-04-18 07:15 43.31149 0.71942 37240 ft 432 kts 194°
2026-04-18 07:16 43.25238 0.70390 37232 ft 433 kts 194°
2026-04-18 07:16 43.19329 0.68840 37228 ft 432 kts 194°
2026-04-18 07:17 43.13414 0.67293 37215 ft 433 kts 194°
2026-04-18 07:17 43.07502 0.65749 37218 ft 433 kts 194°
2026-04-18 07:18 43.01587 0.64207 37223 ft 433 kts 194°
2026-04-18 07:18 42.95670 0.62668 37216 ft 433 kts 194°
2026-04-18 07:19 42.89750 0.61131 37239 ft 434 kts 194°
2026-04-18 07:19 42.83834 0.59598 37258 ft 432 kts 194°
2026-04-18 07:20 42.77919 0.58068 37178 ft 431 kts 194°
2026-04-18 07:20 42.72017 0.56544 37254 ft 434 kts 194°
2026-04-18 07:21 42.69106 0.55574 37226 ft 426 kts 205°
2026-04-18 07:21 42.66406 0.53896 37182 ft 427 kts 207°
2026-04-18 07:21 42.61020 0.50521 37233 ft 427 kts 208°
2026-04-18 07:22 42.55674 0.47112 37209 ft 426 kts 208°
2026-04-18 07:22 42.50302 0.43682 37199 ft 426 kts 208°
2026-04-18 07:23 42.44932 0.40259 37210 ft 428 kts 208°
2026-04-18 07:23 42.39556 0.36838 37209 ft 427 kts 208°
2026-04-18 07:24 42.34175 0.33421 37195 ft 426 kts 208°
2026-04-18 07:24 42.28803 0.30016 37190 ft 427 kts 208°
2026-04-18 07:25 42.23429 0.26617 37186 ft 427 kts 208°
2026-04-18 07:25 42.18049 0.23220 37164 ft 427 kts 208°
2026-04-18 07:26 42.12662 0.19824 37180 ft 428 kts 208°
2026-04-18 07:26 42.07255 0.16470 37173 ft 429 kts 203°
2026-04-18 07:27 42.04341 0.15574 37178 ft 433 kts 189°
2026-04-18 07:27 42.01342 0.15092 37157 ft 435 kts 191°
2026-04-18 07:27 41.95333 0.14109 37174 ft 436 kts 190°
2026-04-18 07:28 41.89291 0.13191 37176 ft 436 kts 189°
2026-04-18 07:28 41.83261 0.12288 37174 ft 436 kts 189°
2026-04-18 07:29 41.77269 0.11394 37165 ft 436 kts 189°
2026-04-18 07:29 41.71219 0.10493 37179 ft 438 kts 189°
2026-04-18 07:30 41.65172 0.09594 37177 ft 437 kts 189°
2026-04-18 07:30 41.59119 0.08695 37178 ft 437 kts 189°
2026-04-18 07:31 41.53064 0.07799 37171 ft 438 kts 189°
2026-04-18 07:31 41.47004 0.06903 37168 ft 438 kts 189°
2026-04-18 07:32 41.40944 0.06008 37170 ft 438 kts 189°
2026-04-18 07:32 41.34880 0.05116 37176 ft 438 kts 189°
2026-04-18 07:33 41.28815 0.04224 37175 ft 439 kts 189°
2026-04-18 07:33 41.22747 0.03334 37170 ft 439 kts 189°
2026-04-18 07:34 41.16674 0.02445 37173 ft 439 kts 189°
2026-04-18 07:34 41.10603 0.01556 37173 ft 439 kts 189°
2026-04-18 07:35 41.04534 0.00670 37179 ft 439 kts 189°
2026-04-18 07:35 40.98466 -0.00216 37176 ft 439 kts 189°
2026-04-18 07:36 40.92398 -0.01099 37180 ft 439 kts 189°
2026-04-18 07:36 40.86367 -0.01976 37179 ft 439 kts 189°
2026-04-18 07:37 40.80307 -0.02855 37185 ft 439 kts 189°
2026-04-18 07:37 40.74238 -0.03734 37181 ft 438 kts 189°
2026-04-18 07:38 40.68173 -0.04611 37176 ft 438 kts 189°
2026-04-18 07:38 40.62107 -0.05485 37182 ft 438 kts 189°
2026-04-18 07:39 40.56050 -0.06397 37175 ft 437 kts 194°
2026-04-18 07:39 40.50255 -0.08608 37157 ft 435 kts 199°
2026-04-18 07:40 40.44462 -0.10891 37180 ft 435 kts 199°
2026-04-18 07:40 40.38673 -0.13180 37178 ft 434 kts 199°
2026-04-18 07:41 40.32884 -0.15466 37184 ft 435 kts 199°
2026-04-18 07:41 40.27090 -0.17750 37177 ft 434 kts 199°
2026-04-18 07:42 40.21299 -0.20029 37182 ft 435 kts 199°
2026-04-18 07:42 40.15503 -0.22306 37182 ft 435 kts 199°
2026-04-18 07:43 40.09704 -0.24579 37176 ft 435 kts 199°
2026-04-18 07:43 40.03897 -0.26852 37167 ft 435 kts 199°
2026-04-18 07:44 39.98139 -0.29101 37171 ft 435 kts 199°
2026-04-18 07:44 39.92354 -0.31355 36836 ft 424 kts 199°
2026-04-18 07:45 39.89565 -0.32441 36247 ft 423 kts 199°
2026-04-18 07:45 39.86745 -0.33538 35632 ft 423 kts 199°
2026-04-18 07:45 39.83932 -0.34632 35125 ft 420 kts 199°
2026-04-18 07:45 39.81145 -0.35715 34698 ft 416 kts 199°
2026-04-18 07:46 39.78384 -0.36787 34219 ft 413 kts 199°
2026-04-18 07:46 39.75641 -0.37850 33669 ft 410 kts 199°
2026-04-18 07:46 39.72911 -0.38909 33151 ft 407 kts 199°
2026-04-18 07:46 39.70206 -0.39956 32682 ft 404 kts 199°
2026-04-18 07:47 39.67527 -0.40992 32233 ft 400 kts 199°
2026-04-18 07:47 39.64869 -0.42020 31771 ft 397 kts 199°
2026-04-18 07:47 39.62227 -0.43040 31314 ft 395 kts 199°
2026-04-18 07:47 39.59605 -0.44052 30865 ft 392 kts 199°
2026-04-18 07:48 39.57002 -0.45056 30429 ft 389 kts 198°
2026-04-18 07:48 39.54413 -0.46054 29963 ft 387 kts 198°
2026-04-18 07:48 39.51844 -0.47043 29491 ft 384 kts 198°
2026-04-18 07:48 39.49293 -0.48016 29059 ft 380 kts 196°
2026-04-18 07:49 39.46671 -0.48474 28540 ft 382 kts 183°
2026-04-18 07:49 39.44036 -0.48624 28203 ft 376 kts 185°
2026-04-18 07:49 39.41439 -0.48820 27831 ft 372 kts 185°
2026-04-18 07:49 39.38869 -0.49008 27437 ft 369 kts 185°
2026-04-18 07:50 39.36316 -0.49194 27042 ft 366 kts 185°
2026-04-18 07:50 39.33780 -0.49378 26655 ft 364 kts 185°
2026-04-18 07:50 39.31262 -0.49561 26277 ft 361 kts 185°
2026-04-18 07:50 39.28760 -0.49742 25904 ft 359 kts 185°
2026-04-18 07:51 39.26275 -0.49922 25536 ft 357 kts 185°
2026-04-18 07:51 39.23802 -0.50100 25167 ft 355 kts 184°
2026-04-18 07:51 39.21344 -0.50278 24801 ft 353 kts 184°
2026-04-18 07:51 39.18895 -0.50455 24438 ft 352 kts 184°
2026-04-18 07:52 39.16455 -0.50630 24079 ft 350 kts 184°
2026-04-18 07:52 39.14027 -0.50806 23707 ft 349 kts 184°
2026-04-18 07:52 39.11605 -0.50980 23284 ft 348 kts 184°
2026-04-18 07:52 39.09201 -0.51153 22909 ft 345 kts 184°
2026-04-18 07:53 39.06815 -0.51325 22556 ft 342 kts 184°
2026-04-18 07:53 39.04448 -0.51495 22203 ft 339 kts 184°
2026-04-18 07:53 39.02101 -0.51663 21862 ft 336 kts 184°
2026-04-18 07:53 38.99772 -0.51830 21520 ft 334 kts 184°
2026-04-18 07:54 38.97463 -0.51996 21176 ft 331 kts 184°
2026-04-18 07:54 38.95198 -0.52159 20843 ft 329 kts 184°
2026-04-18 07:54 38.92889 -0.52324 20501 ft 327 kts 184°
2026-04-18 07:54 38.90657 -0.52483 20166 ft 325 kts 184°
2026-04-18 07:55 38.88408 -0.52645 19842 ft 323 kts 184°
2026-04-18 07:55 38.86174 -0.52804 19514 ft 321 kts 184°
2026-04-18 07:55 38.83949 -0.52963 19186 ft 319 kts 184°
2026-04-18 07:55 38.81739 -0.53120 18861 ft 318 kts 183°
2026-04-18 07:56 38.79534 -0.53278 18535 ft 317 kts 183°
2026-04-18 07:56 38.77339 -0.53435 18162 ft 315 kts 183°
2026-04-18 07:56 38.75155 -0.53591 17824 ft 313 kts 183°
2026-04-18 07:56 38.72988 -0.53745 17497 ft 311 kts 183°
2026-04-18 07:57 38.70837 -0.53899 17178 ft 308 kts 183°
2026-04-18 07:57 38.68687 -0.54052 16856 ft 311 kts 183°
2026-04-18 07:57 38.66510 -0.54207 16522 ft 316 kts 183°
2026-04-18 07:57 38.64304 -0.54363 16194 ft 318 kts 184°
2026-04-18 07:58 38.59914 -0.54675 15542 ft 314 kts 184°
2026-04-18 07:58 38.57738 -0.54829 15221 ft 313 kts 184°
2026-04-18 07:58 38.55570 -0.54983 14896 ft 311 kts 184°
2026-04-18 07:59 38.54138 -0.55084 14675 ft 311 kts 184°
2026-04-18 07:59 38.51984 -0.55237 14352 ft 309 kts 184°
2026-04-18 07:59 38.49841 -0.55388 14036 ft 308 kts 184°
2026-04-18 07:59 38.47705 -0.55539 13681 ft 307 kts 184°
2026-04-18 08:00 38.45571 -0.55690 13332 ft 306 kts 184°
2026-04-18 08:00 38.43455 -0.55840 13006 ft 304 kts 184°
2026-04-18 08:00 38.40675 -0.56036 12587 ft 301 kts 184°
2026-04-18 08:00 38.39268 -0.56135 12375 ft 299 kts 184°
2026-04-18 08:01 38.37194 -0.56281 12066 ft 297 kts 184°
2026-04-18 08:01 38.35136 -0.56426 11753 ft 296 kts 183°
2026-04-18 08:01 38.33088 -0.56570 11441 ft 294 kts 183°
2026-04-18 08:01 38.31052 -0.56714 11134 ft 292 kts 183°
2026-04-18 08:02 38.29028 -0.56872 10817 ft 291 kts 187°
2026-04-18 08:02 38.27126 -0.57671 10470 ft 289 kts 213°
2026-04-18 08:02 38.25688 -0.59352 10200 ft 284 kts 234°
2026-04-18 08:02 38.24530 -0.61350 9994 ft 278 kts 235°
2026-04-18 08:03 38.23398 -0.63332 9690 ft 276 kts 235°
2026-04-18 08:03 38.22223 -0.65252 9366 ft 275 kts 223°
2026-04-18 08:03 38.20591 -0.66490 9030 ft 275 kts 199°
2026-04-18 08:03 38.18777 -0.67205 8768 ft 271 kts 197°
2026-04-18 08:04 38.16978 -0.67899 8493 ft 269 kts 197°
2026-04-18 08:04 38.15182 -0.68621 8204 ft 273 kts 204°
2026-04-18 08:04 38.13638 -0.70016 7870 ft 276 kts 225°
2026-04-18 08:04 38.12267 -0.71739 7587 ft 278 kts 225°
2026-04-18 08:05 38.10891 -0.73463 7290 ft 278 kts 225°
2026-04-18 08:05 38.09519 -0.75193 6998 ft 277 kts 225°
2026-04-18 08:05 38.08155 -0.76913 6685 ft 276 kts 224°
2026-04-18 08:05 38.06786 -0.78640 6299 ft 279 kts 224°
2026-04-18 08:06 38.05404 -0.80385 5892 ft 281 kts 224°
2026-04-18 08:06 38.04019 -0.82134 5569 ft 280 kts 224°
2026-04-18 08:06 38.02641 -0.83851 5379 ft 274 kts 223°
2026-04-18 08:06 38.01299 -0.85502 5263 ft 265 kts 224°
2026-04-18 08:07 38.00008 -0.87122 5127 ft 257 kts 225°
2026-04-18 08:07 37.98767 -0.88703 4994 ft 249 kts 225°
2026-04-18 08:07 37.97572 -0.90234 4891 ft 239 kts 225°
2026-04-18 08:07 37.96420 -0.91716 4712 ft 233 kts 225°
2026-04-18 08:08 37.95294 -0.93166 4473 ft 227 kts 225°
2026-04-18 08:08 37.94204 -0.94574 4185 ft 221 kts 225°
2026-04-18 08:08 37.93140 -0.95945 3907 ft 216 kts 225°
2026-04-18 08:08 37.92102 -0.97284 3640 ft 210 kts 225°
2026-04-18 08:09 37.91088 -0.98592 3371 ft 207 kts 225°
2026-04-18 08:09 37.90093 -0.99875 3089 ft 199 kts 225°
2026-04-18 08:09 37.89161 -1.01079 2857 ft 182 kts 225°
2026-04-18 08:09 37.88321 -1.02162 2634 ft 164 kts 225°
2026-04-18 08:10 37.87561 -1.03143 2433 ft 152 kts 225°
2026-04-18 08:10 37.86824 -1.04091 2221 ft 151 kts 225°
2026-04-18 08:10 37.86090 -1.05037 2022 ft 150 kts 225°
2026-04-18 08:10 37.85359 -1.05979 1817 ft 150 kts 224°
2026-04-18 08:11 37.84640 -1.06906 1620 ft 150 kts 225°
2026-04-18 08:11 37.83911 -1.07845 1424 ft 150 kts 225°
2026-04-18 08:11 37.83180 -1.08785 1214 ft 150 kts 225°
2026-04-18 08:11 37.82431 -1.09717 1004 ft 152 kts 225°
2026-04-18 08:12 37.81701 -1.10682 804 ft 151 kts 225°
2026-04-18 08:12 37.80972 -1.11625 663 ft 143 kts 225°
2026-04-18 08:12 37.80377 -1.12390 658 ft 92 kts 225°
2026-04-18 08:12 37.80067 -1.12788 652 ft 45 kts 226°
2026-04-18 08:13 37.79942 -1.13010 656 ft 22 kts 242°
2026-04-18 08:13 37.79893 -1.13182 655 ft 13 kts 261°
2026-04-18 08:13 37.79948 -1.13240 657 ft 11 kts 25°
2026-04-18 08:13 37.80012 -1.13167 655 ft 14 kts 45°
2026-04-18 08:14 37.80089 -1.13086 657 ft 15 kts 13°
2026-04-18 08:14 37.80165 -1.13140 654 ft 9 kts 329°
2026-04-18 08:14 37.80224 -1.13142 654 ft 7 kts 32°
2026-04-18 08:14 37.80236 -1.13131 656 ft 3 kts 37°
2026-04-18 08:15 37.80242 -1.13131 657 ft 0 kts 344°
2026-04-18 08:15 37.80260 -1.13153 654 ft 8 kts 315°
2026-04-18 08:15 37.80288 -1.13188 654 ft 4 kts 315°
2026-04-18 08:15 37.80293 -1.13194 655 ft 0 kts 316°